Location: Newark
(48.8604°N, 2.3376°E)
Time: 16:21:59
(UTC+00:00)

XW-2C - Pass Details

Date: 13 December 2021
Orbit: 503 x 523 km, 97.5° (Epoch: 17 January)

Event Time Altitude Azimuth Distance (km) Brightness Sun altitude
Rises 04:34:42 0° 34° (NE) 2,669 ? -28.6°
Reaches altitude 10° 04:38:37 10° 75° (ENE) 1,769 ? -27.9°
Maximum altitude 04:39:26 11° 87° (E) 1,732 ? -27.8°
Drops below altitude 10° 04:40:14 10° 100° (E) 1,764 ? -27.7°
Sets 04:44:06 0° 140° (SE) 2,639 ? -27.0°
